Tracking 29594 objects as of 20-Sep-2024
HD Live streaming from Space Station
objects crossing your sky now

FENGYUN 1C DEB

Track FENGYUN 1C DEB now!
10-day predictions


NORAD ID: 31738
Int'l Code: 1999-025CEM
Perigee: 733.3 km
Apogee: 1,199.8 km
Inclination: 99.4 °
Period: 104.3 minutes
Semi major axis: 7337 km
RCS: 0.0147 m2 (small)
Launch date: May 10, 1999
Source: People's Republic of China (PRC)
Launch site: Taiyaun Space Center, China (TSC)

Note: This is SATELLITE DEBRIS
Your satellite tracking list
Your tracking list is empty




NASA's NSSDC Master Catalog

Two Line Element Set (TLE):
1 31738U 99025CEM 24258.91514835  .00006637  00000-0  42892-2 0  9993
2 31738  99.3964 320.7198 0317861 227.2192 130.1826 13.81258150869069
Source of the keplerian elements: AFSPC